Погода в Белогорске

Погода в Белогорске : погода сейчас, прогноз погоды и архив. Всё, что Вы хотите узнать о погоде в Белогорске!

Хотите узнать прогноз погоды в Белогорске? Тогда Вам сюда: Погода в Белогорске

Поиск расширенной информации на нашем сайте:

Другие новости

Новости СМИ2

Главная страница сайта

Новости сайта

02.10.2013

Напоминаем, что на нашем новом сайте вы можете получить высокодетализированные прогнозы погоды по пунктам России, СНГ и мира (включающие важные для авиации метеовеличины, такие как направление и скорость ветра, видимость, явления погоды, количество и форма облачности, нижняя и верхняя граница облачности), а также ознакомиться с разнообразными материалами по авиационной метеорологии и подборкой полезных ссылок на эту тему.

Сайт Метеоцентр.Азия посвящён разработке технологий оптимизации авиаметеорологического обслуживания, включая проектирование и перспективное создание нескольких автоматизированных авиаметеорологических систем:
- система выпуска высокодетальных прогностических карт явлений погоды для нижнего воздушного пространства по России и ближнему зарубежью;
- система верификации прогнозов TAF (выпускаемых синоптиками официальных АМСГ РФ и ближнего зарубежья) и AUTOTAF (выпускаемых сайтом Метеоцентр.Азия) - выявление ошибок, онлайн-сопоставление с фактической погодой METAR, автоматическое внесение коррективов в прогнозы при резком отклонении фактической погоды от прогноза, подсчёт оправдываемости прогнозов по элементам и в целом;
- система обработки, анализа и отображения авиаметеорологической информации для применения провайдерами метеорологической информации.


Погода в Белогорске - сегодня

Время (UTC), дата Ветер
(°,м/с) 
Видим.   Явления Облачность Т
(°С)
Тd
(°С)
f(%) Тe
(°С)
Pmin
(гПа)
dP
(гПа)
Po
(мм)
O2
(г/м3)
Тmin Tmax R s Состояние
почвы
15 20.01.17 тихо ()   20000 м    ясно 
-26.1 -28.7 79 -26  1027.5  752  337           
18 20.01.17 тихо ()   20000 м    ясно 
-27 -29.7 78 -27  1028  0.4  752  338           
21 20.01.17 тихо ()   20000 м    ясно 
-29.1 -32.2 74 -29  1028.3  0.1  752  341           
00 21.01.17 тихо ()   20000 м    3/0 верхняя 
[Ci fib]
-30.1 -33.4 73 -30  1029.6  1.2  753  343  -31.7      19  равномерный
сухой снег
100% 
03 21.01.17 290 (З) 20000 м    ясно 
-23.9 -27.9 70 -24  1029.5  0.5  754  335           
06 21.01.17 350 (С) 20000 м    3/0 верхняя 
[Ci fib]
-20.7 -26.3 61 -21  1028.5  -0.7  753  330           
09 21.01.17 350 (С) 20000 м    3/0 верхняя 
[Ci fib]
-23.6 -27 74 -27  1029.5  0.7  754  334           
12 21.01.17 330 (СЗ) 20000 м    ясно 
-24.5 -27.3 77 -25  1029.9  0.3  754  335    -20.6       
15 21.01.17 330 (СЗ) 20000 м    ясно 
-25.8 -28.7 77 -26  1029.7  -0.3  754  337           
18 21.01.17 330 (СЗ) 20000 м    ясно 
-26.7 -29.8 75 -27  1029.5  -0.4  753  338           
21 21.01.17 340 (С) 20000 м    ясно 
-27.4 -30.1 78 -31  1029.1  -0.4  753  339           
00 22.01.17 290 (З) 20000 м    ясно 
-27.9 -30.8 76 -29  1029.8  0.6  753  340  -28.9      19  равномерный
сухой снег
100% 
03 22.01.17 340 (С) 20000 м    3/0 верхняя 
[Ci fib]
-22.1 -27 64 -27  1028.8  -0.4  753  332           
06 22.01.17 310 (СЗ) 20000 м    ясно 
-17.5 -25.3 51 -18  1026.9  -1.3  752  326           
09 22.01.17 210 (ЮЗ) 20000 м    ясно 
-20.9 -26 64 -24  1027.4  0.2  752  330           
12 22.01.17 300 (СЗ) 20000 м    ясно 
-23.1 -26.7 72 -24  1027.6  752  333    -17       
15 22.01.17 290 (З) 20000 м    ясно 
-23.8 -27.6 71 -27  1027.5  -0.2  752  334           
18 22.01.17 300 (СЗ) 20000 м    ясно 
-25.1 -28.5 73 -26  1027.4  -0.2  752  335           
21 22.01.17 300 (СЗ) 20000 м    ясно 
-26.5 -29.5 76 -27  1027.9  0.4  752  338           
00 23.01.17 290 (З) 20000 м    ясно 
-26.3 -29.2 76 -27  1029.1  1.2  753  338  -27.4      19  равномерный
сухой снег
100% 
03 23.01.17 330 (СЗ) 20000 м    ясно 
-21.1 -26.7 61 -21  1029.1  0.6  753  331           
06 23.01.17 340 (С) 20000 м    ясно 
-16.9 -25 49 -19  1028.3  -0.4  753  325           
09 23.01.17 230 (ЮЗ) 20000 м    ясно 
-19.5 -25.3 60 -20  1028.9  0.4  753  329           
12 23.01.17 290 (З) 20000 м    ясно 
-22.8 -26.6 71 -23  1029.5  0.2  754  333    -16.5       
15 23.01.17 220 (ЮЗ) 20000 м    ясно 
-23.4 -27 72 -24  1029.1  -0.4  753  334           
Время (UTC), дата Ветер
(°,м/с) 
Видим.   Явления Облачность Т
(°С)
Тd
(°С)
f(%) Тe
(°С)
Pmin
(гПа)
dP
(гПа)
Po
(мм)
O2
(г/м3)
Тmin Tmax R s Состояние
почвы

Для получения пояснительной информации подведите курсор к названию столбца.

ПОГОДА в Белогорске - архив

Всё, что Вы хотите узнать о погоде в Белогорске - удобно и подробно!

Выберите нужную дату (начиная с 1 января 2015* года) и нажмите кнопку "Найти".
Будут отображены архивные сводки погоды по пункту Белогорск, начиная с указанной даты.


Отображать данные в формате CSV (для использования в таблицах Excel)


Внимание! Наш архив погоды предназначен исключительно для личного некоммерческого использования в познавательных целях. Если Вам необходимы официальные справки о состоянии погоды (для производственных, юридических, коммерческих и т.п. целей), обращайтесь в органы Росгидромета.

*Примечание: данная дата относится к архиву по метеостанциям СССР (Россия, СНГ, Балтия).
Архив по метеостанциям Зарубежной Европы и Азии (кроме Китая) хранится 10 дней, по другим регионам земного шара (Китай, Африка, Америка, Австралия, Океания) - 1 день.

Белогорск - район местоположения метеостанции


Название, широта, долгота, высота метеостанции:
Белогорск 50.9°ш. 128.5°д. 178 м над ур. моря [Российская Федерация]

Дополнительная информация

В oтличие oт бoльшинства пoгoдных сайтoв мы публикуем пoдрoбную метеoинфoрмацию в детальнoм прoфессиoнальнoм фoрмате.

Характеристики температуры и влажнoсти вoздуха измеряются на высoте 2 м в тени вдали oт зданий и деревьев.
Скoрoсть ветра измеряется на высoте 10 м (на урoвне рoста челoвека скoрoсть ветра ниже в 1.5-2 раза). Если метеoстанция нахoдится в гoрoде или в лесу, тo скoрoсть ветра занижена на 2-4 м/с пo сравнению с oткрытым местoм. Скoрoсть ветра над акватoриями крупных рек и oзёр, а также на вершинах хoлмoв на 2-5 м/с выше, чем в oбычных услoвиях.
Атмoсфернoе давление в разных тoчках местнoсти мoжет значительнo oтличаться oт давления на метеoстанции, в зависимoсти oт услoвий рельефа (при пoдъёме на 10 м давление пoнижается примернo на 1 мм рт.ст.).